Regional Weather Roundup
Issued by NWS

Home | Current Version | Previous Version | Text Only | Print | Product List | Glossary Off
Versions: 1 2 3 4 5 6 7 8 9 10 11 12 13 14 15 16 17 18 19 20 21 22 23 24 25 26 27 28 29 30 31 32 33 34 35 36 37 38 39 40 41 42 43 44 45 46 47 48 49 50

000
ASUS45 KCYS 300810
RWRWY

WYOMING REGIONAL WEATHER ROUNDUP
NATIONAL WEATHER SERVICE CHEYENNE WY
200 AM MDT WED JUL 30 2014

NOTE:  "FAIR" INDICATES FEW OR NO CLOUDS BELOW 12,000 FEET
WITH NO SIGNIFICANT WEATHER AND/OR OBSTRUCTIONS TO VISIBILITY.

WYZ001-300900-
YELLOWSTONE NATIONAL PARK

CITY           SKY/WX    TMP DP  RH WIND       PRES   REMARKS
LK YELLOWSTONE   N/A     44  43  96 NW3       30.47F
W YELLOWSTONE  NOT AVBL

$$
WYZ002>013-054>058-071-098>099-300900-
NORTHERN WYOMING

CITY           SKY/WX    TMP DP  RH WIND       PRES   REMARKS
JACKSON        CLOUDY    52  50  93 N13       30.35F
CODY           NOT AVBL
GREYBULL       CLEAR     59  53  80 SE3       30.26S
WORLAND        CLEAR     58  56  93 SE6       30.27S
SHERIDAN       PTCLDY    52  46  80 CALM      30.24S
BUFFALO        CLEAR     56  43  61 SW7       30.30S
GILLETTE       PTCLDY    59  53  80 SW8       30.26F
HULETT         FAIR      61  54  77 MISG      30.27
NEWCASTLE      FAIR      55  54  94 N6        30.29

$$
WYZ014>020-022>026-101>103-300900-
CENTRAL WYOMING

CITY           SKY/WX    TMP DP  RH WIND       PRES   REMARKS
BIG PINEY      CLOUDY    55  52  89 CALM      30.39S
PINEDALE       CLOUDY    52  50  93 CALM      30.39S
DUBOIS         FAIR      50  45  81 N3        30.41S
LANDER         CLOUDY    58  55  90 W7        30.34R
RIVERTON       CLOUDY    57  53  86 CALM      30.34S
CASPER         CLOUDY    55  53  93 NE6       30.32S
DOUGLAS        MOCLDY    57  54  89 NE3       30.32S

$$
WYZ021-027>030-104>119-300900-
SOUTHERN WYOMING

CITY           SKY/WX    TMP DP  RH WIND       PRES   REMARKS
EVANSTON       CLOUDY    55  53  93 E13       30.34S
KEMMERER       DRIZZLE  N/A N/A N/A NE14      30.38S
FORT BRIDGER   CLOUDY    55  55 100 E10G17    30.38S
ROCK SPRINGS   CLOUDY    57  52  83 NE13      30.35S
DIXON          DRIZZLE   58  57  94 CALM      30.32S
RAWLINS        CLOUDY    53  51  93 NE15      30.34S
SARATOGA       DRIZZLE   54  54 100 CALM      30.34S
LARAMIE        LGT RAIN  54  51  90 CALM      30.36S
CHEYENNE       LGT RAIN  55  54  96 NE8       30.32F
TORRINGTON     CLOUDY    62  60  93 N7        30.25F
PINE BLUFFS    DRIZZLE   57  55  94 N3        30.29S

$$



USA.gov is the U.S. government's official web portal to all federal, state and local government web resources and services.